Weather History for Cincinnati, OH

Change the Weather History Date:

Monday, April 29, 2013

  Actual Average Record
Temperature  
Mean Temperature 56 °F -  
Max Temperature 64 °F 70 °F 88 °F (1970)
Min Temperature 48 °F 45 °F 32 °F (1977)
Degree Days  
Heating Degree Days 9    
Growing Degree Days 6 (Base 50)    
Moisture  
Dew Point 53 °F    
Average Humidity 91    
Maximum Humidity 100    
Minimum Humidity 72    
Precipitation  
Precipitation 0.01 in - - ()
Sea Level Pressure  
Sea Level Pressure 29.97 in    
Wind  
Wind Speed 4 mph (SSW)    
Max Wind Speed 7 mph    
Max Gust Speed -    
Visibility 6 miles    
Events Fog , Rain    
Averages and records for this station are not official NWS values.
T = Trace of Precipitation, MM = Missing Value Source: NWS Daily Summary

Daily Weather History Graph

Daily Weather History Graph

Search for Another Location

Airport:

Trip Planner

Search our weather history database for the weather conditions in past years. The results will help you decide how hot, cold, wet, or windy it might be!

Date:

Astronomy

Apr. 29, 2013 Rise Set
Actual Time 6:41 AM EDT 8:28 PM EDT
Civil Twilight 6:12 AM EDT 8:57 PM EDT
Nautical Twilight 5:38 AM EDT 9:32 PM EDT
Astronomical Twilight 5:00 AM EDT 10:10 PM EDT
Moon No Moon Rise 10:02 AM EDT (4/29)
Length of Visible Light 14h 44m
Length of Day
13h 47m
Waning Gibbous, 80% of the Moon is Illuminated
Apr 29
Waning Gibbous
May 2
Last Quarter
May 9
New
May 18
First Quarter
May 25
Full

Hourly Weather History & Observations

Time (EDT) Temp. Dew Point Humidity Pressure Visibility Wind Dir Wind Speed Gust Speed Precip Events Conditions
12:53 AM 55.0 °F 52.0 °F 89% 29.91 in 10.0 mi South 5.8 mph - N/A   Clear
1:12 AM 53.6 °F 51.8 °F 94% 29.92 in 10.0 mi South 4.6 mph - N/A   Mostly Cloudy
1:53 AM 55.9 °F 54.0 °F 93% 29.92 in 10.0 mi SSW 4.6 mph - N/A   Overcast
2:53 AM 55.9 °F 54.0 °F 93% 29.92 in 10.0 mi South 5.8 mph - N/A   Overcast
3:38 AM 55.4 °F 53.6 °F 94% 29.93 in 10.0 mi South 5.8 mph - N/A   Overcast
3:53 AM 55.9 °F 54.0 °F 93% 29.93 in 9.0 mi South 5.8 mph - N/A   Overcast
4:53 AM 55.9 °F 54.0 °F 93% 29.94 in 7.0 mi SSW 5.8 mph - N/A   Overcast
5:53 AM 55.0 °F 55.0 °F 100% 29.95 in 6.0 mi South 4.6 mph - 0.00 in   Overcast
6:13 AM 55.4 °F 55.4 °F 100% 29.96 in 6.0 mi South 5.8 mph - N/A   Overcast
6:53 AM 55.9 °F 55.0 °F 97% 29.97 in 3.0 mi South 4.6 mph - N/A   Overcast
7:10 AM 55.4 °F 55.4 °F 100% 29.97 in 2.0 mi Calm Calm - 0.00 in Rain Light Rain
7:53 AM 55.9 °F 55.0 °F 97% 29.99 in 2.0 mi South 3.5 mph - 0.01 in   Overcast
8:19 AM 55.4 °F 55.4 °F 100% 29.99 in 3.0 mi South 3.5 mph - 0.00 in   Overcast
8:53 AM 57.0 °F 55.9 °F 96% 30.00 in 3.0 mi South 4.6 mph - 0.00 in   Overcast
9:53 AM 57.9 °F 57.0 °F 97% 30.00 in 4.0 mi SW 3.5 mph - N/A   Overcast
10:53 AM 59.0 °F 55.9 °F 90% 30.01 in 10.0 mi WSW 3.5 mph - N/A   Overcast
11:53 AM 61.0 °F 55.9 °F 83% 30.01 in 10.0 mi WSW 6.9 mph - N/A   Overcast
12:53 PM 62.1 °F 55.0 °F 78% 30.01 in 10.0 mi West 5.8 mph - N/A   Overcast
1:53 PM 61.0 °F 55.9 °F 83% 30.01 in 10.0 mi West 4.6 mph - 0.00 in   Overcast
2:53 PM 61.0 °F 57.0 °F 87% 30.00 in 10.0 mi South 3.5 mph - N/A   Overcast
3:53 PM 64.0 °F 55.0 °F 73% 29.98 in 10.0 mi Calm Calm - N/A   Overcast
4:26 PM 62.6 °F 53.6 °F 72% 29.98 in 10.0 mi Calm Calm - N/A   Overcast
4:53 PM 63.0 °F 55.0 °F 75% 29.98 in 10.0 mi SE 3.5 mph - N/A   Overcast
5:53 PM 64.0 °F 55.0 °F 73% 29.97 in 10.0 mi Calm Calm - N/A   Overcast
6:53 PM 64.0 °F 55.0 °F 73% 29.97 in 10.0 mi South 6.9 mph - N/A   Overcast
7:53 PM 62.1 °F 54.0 °F 75% 29.98 in 10.0 mi South 3.5 mph - N/A   Overcast
8:53 PM 57.9 °F 53.1 °F 84% 29.97 in 10.0 mi Calm Calm - N/A   Clear
9:53 PM 53.1 °F 52.0 °F 96% 29.99 in 5.0 mi Calm Calm - N/A   Clear
10:53 PM 51.1 °F 51.1 °F 100% 29.99 in 9.0 mi Calm Calm - N/A Fog Patches of Fog
10:57 PM 50.0 °F 50.0 °F 100% 29.99 in 1.8 mi Calm Calm - N/A   Clear
11:00 PM 50.0 °F 48.2 °F 94% 29.99 in 1.0 mi Calm Calm - N/A   Mist
11:07 PM 50.0 °F 50.0 °F 100% 29.99 in 0.5 mi Calm Calm - N/A Fog Fog
11:15 PM 51.8 °F 51.8 °F 100% 29.98 in 1.2 mi Calm Calm - N/A   Partly Cloudy
11:18 PM 50.0 °F 50.0 °F 100% 29.98 in 0.8 mi Calm Calm - N/A   Mist
11:29 PM 50.0 °F 50.0 °F 100% 29.99 in 0.2 mi Calm Calm - N/A Fog Fog
11:44 PM 48.2 °F 48.2 °F 100% 29.99 in 0.2 mi Calm Calm - N/A Fog Fog
11:53 PM 50.0 °F 50.0 °F 100% 29.99 in 0.2 mi Calm Calm - N/A Fog Fog